Flag for Austria Weather past 2 weeks in Wolfsberg, Carinthia, Austria

Now
54 °F

Broken clouds.


Feels Like: 52 °F
Forecast: 38 / 67 °F
Wind: 7 mph from Northeast

Location: Zeltweg


UV Index: 3 (Moderate)

Visibility: 22 mi


Pressure: 29.71 "Hg

Humidity: 38%

Dew point: 28 °F

Location of WolfsbergLocation

Historic Weather in Wolfsberg

°F

Wolfsberg temperature yesterday

Maximum temperature yesterday: 52 °F (at 4:50 PM)
Minimum temperature yesterday: 30 °F (at 6:50 AM)
Average temperature yesterday: 44 °F

Past Weeks' High & Low Weather Summary

 TemperatureHumidityPressure
High72 °F (Apr 8, 2:50 PM)100% (Apr 7, 7:20 AM)30.24 "Hg (Apr 7, 7:20 AM)
Low25 °F (Apr 18, 5:50 AM)20% (Apr 18, 1:50 PM)29.68 "Hg (Apr 18, 4:20 PM)
Average49 °F60%30.00 "Hg
* Reported Apr 3 6:20 PM — Apr 18 6:50 PM, Wolfsberg, Weather by CustomWeather, © 2014

Note: Actual official high and low records may vary slightly from our data, if they occured in-between our weather recording intervals... More about our weather records

Advertising

Historic Weather Conditions — Data for Previous 24 hours

 ConditionsComfort  
Time TempWeatherWind HumidityBarometerVisibility
6:50 PM
Apr 18
57 °FPartly sunny.8 mph29%29.71 "Hg22 mi
6:20 PM57 °FPartly sunny.7 mph29%29.71 "Hg25 mi
5:50 PM57 °FPartly sunny.9 mph27%29.68 "Hg25 mi
5:20 PM59 °FBroken clouds.9 mph25%29.68 "Hg25 mi
4:50 PM61 °FBroken clouds.12 mph23%29.68 "Hg25 mi
4:20 PM61 °FBroken clouds.14 mph23%29.68 "Hg25 mi
3:50 PM63 °FBroken clouds.13 mph22%29.71 "Hg25 mi
3:20 PM61 °FBroken clouds.5 mph20%29.71 "Hg25 mi
2:50 PM61 °FBroken clouds.3 mph22%29.71 "Hg25 mi
2:20 PM61 °FBroken clouds.3 mph20%29.74 "Hg25 mi
1:50 PM59 °FBroken clouds.2 mph20%29.74 "Hg25 mi
1:20 PM59 °FBroken clouds.3 mph21%29.74 "Hg25 mi
12:50 PM57 °FBroken clouds.2 mph23%29.77 "Hg31 mi
12:20 PM55 °FBroken clouds.3 mph28%29.77 "Hg31 mi
11:50 AM52 °FBroken clouds.2 mph35%29.80 "Hg31 mi
11:20 AM50 °FBroken clouds.1 mph40%29.80 "Hg31 mi
10:50 AM46 °FBroken clouds.2 mph50%29.83 "Hg31 mi
10:20 AM45 °FPartly sunny.2 mph49%29.83 "Hg31 mi
9:50 AM41 °FPartly sunny.2 mph61%29.86 "Hg31 mi
9:20 AM37 °FPartly sunny.1 mph65%29.86 "Hg31 mi
8:50 AM37 °FPartly sunny.1 mph65%29.86 "Hg31 mi
8:20 AM34 °FPartly sunny.1 mph75%29.86 "Hg31 mi
7:50 AM30 °FPartly sunny.1 mph86%29.89 "Hg31 mi
7:20 AM28 °FPartly sunny.1 mph86%29.89 "Hg31 mi
6:50 AM27 °FPassing clouds.No wind93%29.89 "Hg31 mi
5:50 AM25 °FPassing clouds.No wind86%29.92 "Hg25 mi
10:50 PM
Apr 17
36 °FClear.No wind70%30.04 "Hg12 mi
9:50 PM37 °FClear.No wind65%30.04 "Hg12 mi
8:50 PM43 °FPassing clouds.3 mph53%30.04 "Hg19 mi
Weather by CustomWeather, © 2014

See weather overview